Regional Weather Roundup
Issued by NWS

Home | Current Version | Previous Version | Graphics & Text | Print | Product List | Glossary On
Versions: 1 2 3 4 5 6 7 8 9 10 11 12 13 14 15 16 17 18 19 20 21 22 23 24 25 26 27 28 29 30 31 32 33 34 35 36 37 38 39 40 41 42 43 44 45 46 47 48 49 50
977
ASUS45 KABQ 240401
RWRNM
NEW MEXICO REGIONAL WEATHER ROUNDUP
NATIONAL WEATHER SERVICE ALBUQUERQUE NM
1000 PM MDT MON MAY 23 2016

NOTE: "FAIR" MEANS FEW OR NO CLOUDS BELOW 12,000 FEET AGL WITH NO
       SIGNIFICANT WEATHER OR OBSTRUCTIONS TO VISION.

      THIS PRODUCT IS RELEASED AS TWO VERSIONS.  ONE VERSION NEAR
      THE TOP OF THE HOUR CONTAINING PRELIMINARY DATA FROM ALBUQUERQUE
      AND OTHER STATIONS.  A FINAL VERSION WITH ADDITIONAL DATA IS
      ISSUED ABOUT 10 MINUTES AFTER THE HOUR.

NMZ501-503-504-510>518-240500-
NORTHWEST PLATEAU/NORTHCENTRAL MOUNTAINS

CITY           SKY/WX    TMP DP  RH WIND       PRES   REMARKS
FARMINGTON     FAIR      66  10  11 CALM      29.87R
SANTA FE       FAIR      56  20  24 N7        29.93R
TAOS           FAIR      52  19  28 NE9       30.00R

$$
NMZ402-403-502-505>509-240500-
WESTCENTRAL MOUNTAINS/SOUTHWEST MOUNTAINS

CITY           SKY/WX    TMP DP  RH WIND       PRES   REMARKS
GALLUP         FAIR      60  13  15 SW9       29.98R
GRANTS         FAIR      56  21  25 W6        30.00R
SILVER CITY      N/A     61  18  18 W6        29.98R

$$
NMZ407-409-411-412-240500-
SOUTHERN DESERTS

CITY           SKY/WX    TMP DP  RH WIND       PRES   REMARKS
LORDSBURG      FAIR      72  18  13 W8        29.90R
DEMING         FAIR      73  11   9 SW8       29.89R
HOLLOMAN AFB   FAIR      72  17  12 SW6       29.85R
ALAMOGORDO     FAIR      68  23  18 SE3       29.87R
T OR C         FAIR      70  18  13 W7        29.89R

$$
NMZ519>523-240500-
CENTRAL VALLEYS/CENTRAL HIGHLANDS

CITY           SKY/WX    TMP DP  RH WIND       PRES   REMARKS
ALBUQUERQUE    FAIR      73  20  13 SW8       29.89R
DOUBLE EAGLE   CLEAR     61  25  25 W10       29.92R
CLINES CORNERS FAIR      53  18  25 W14       29.98R
BELEN          FAIR      69  14  12 SW12      29.89R
SOCORRO        NOT AVBL

$$
NMZ524>526-539-540-240500-
SOUTHCENTRAL MOUNTAINS

CITY           SKY/WX    TMP DP  RH WIND       PRES   REMARKS
RUIDOSO        NOT AVBL

$$
NMZ527>531-240500-
NORTHEAST HIGHLANDS/NORTHEAST PLAINS

CITY           SKY/WX    TMP DP  RH WIND       PRES   REMARKS
LAS VEGAS      FAIR      56  21  25 S5        29.97R
RATON          FAIR      59  26  28 W8        29.92R
CLAYTON        FAIR      62  31  31 W9        29.85R

$$
NMZ532>537-240500-
EASTCENTRAL PLAINS

CITY           SKY/WX    TMP DP  RH WIND       PRES   REMARKS
TUCUMCARI      FAIR      65  34  31 SW9       29.79R
CANNON AFB     FAIR      68  38  33 S5        29.84R
CLOVIS AIRPORT FAIR      66  39  37 S8        29.83S

$$
NMZ028-029-538-240500-
SOUTHEAST PLAINS

CITY           SKY/WX    TMP DP  RH WIND       PRES   REMARKS
ROSWELL        FAIR      76  24  14 W9        29.80R
ARTESIA        FAIR      72  21  15 W9        29.81R
CARLSBAD       FAIR      70  21  15 W7        29.79R
HOBBS          FAIR      73  43  33 SE14G25   29.86R


$$




USA.gov is the U.S. government's official web portal to all federal, state and local government web resources and services.